Time,TemperatureF,DewpointF,PressureIn,WindDirection,WindDirectionDegrees,WindSpeedMPH,WindSpeedGustMPH,Humidity,HourlyPrecipIn,Conditions,Clouds,dailyrainin,SoftwareType,DateUTC
2013-02-16 00:09:00,32.9,26.0,30.41,North,360,0.0,1.0,76,0.00,,,0.00,weatherlink.com 1.10,2013-02-16 06:09:00,
2013-02-16 00:24:00,32.5,26.0,30.41,North,360,0.0,1.0,76,0.00,,,0.00,weatherlink.com 1.10,2013-02-16 06:24:00,
2013-02-16 00:39:00,31.0,25.0,30.41,North,360,0.0,0.0,77,0.00,,,0.00,weatherlink.com 1.10,2013-02-16 06:39:00,
2013-02-16 00:54:00,31.3,25.0,30.42,North,360,0.0,0.0,78,0.00,,,0.00,weatherlink.com 1.10,2013-02-16 06:54:00,
2013-02-16 01:10:00,31.3,26.0,30.41,North,360,0.0,1.0,79,0.00,,,0.00,weatherlink.com 1.10,2013-02-16 07:10:00,
2013-02-16 01:24:00,31.7,25.0,30.42,North,360,0.0,0.0,77,0.00,,,0.00,weatherlink.com 1.10,2013-02-16 07:24:00,
2013-02-16 01:39:00,31.4,25.0,30.43,North,360,0.0,0.0,78,0.00,,,0.00,weatherlink.com 1.10,2013-02-16 07:39:00,
2013-02-16 01:54:00,31.5,25.0,30.42,North,360,0.0,0.0,78,0.00,,,0.00,weatherlink.com 1.10,2013-02-16 07:54:00,
2013-02-16 02:09:00,30.2,24.0,30.43,North,360,0.0,3.0,78,0.00,,,0.00,weatherlink.com 1.10,2013-02-16 08:09:00,
2013-02-16 02:24:00,32.4,26.0,30.43,North,360,0.0,0.0,76,0.00,,,0.00,weatherlink.com 1.10,2013-02-16 08:24:00,
2013-02-16 02:39:00,31.7,25.0,30.43,North,360,0.0,0.0,77,0.00,,,0.00,weatherlink.com 1.10,2013-02-16 08:39:00,
2013-02-16 02:54:00,30.2,24.0,30.43,North,360,0.0,0.0,76,0.00,,,0.00,weatherlink.com 1.10,2013-02-16 08:54:00,
2013-02-16 03:10:00,29.3,24.0,30.43,North,360,0.0,0.0,79,0.00,,,0.00,weatherlink.com 1.10,2013-02-16 09:10:00,
2013-02-16 03:25:00,29.0,24.0,30.43,North,360,0.0,2.0,81,0.00,,,0.00,weatherlink.com 1.10,2013-02-16 09:25:00,
2013-02-16 03:40:00,27.7,21.0,30.43,North,360,0.0,0.0,77,0.00,,,0.00,weatherlink.com 1.10,2013-02-16 09:40:00,
2013-02-16 03:55:00,30.6,25.0,30.43,North,360,0.0,2.0,78,0.00,,,0.00,weatherlink.com 1.10,2013-02-16 09:55:00,
2013-02-16 04:10:00,30.6,23.0,30.43,North,360,2.0,2.0,73,0.00,,,0.00,weatherlink.com 1.10,2013-02-16 10:10:00,
2013-02-16 04:25:00,33.6,22.0,30.43,North,360,0.0,4.0,63,0.00,,,0.00,weatherlink.com 1.10,2013-02-16 10:25:00,
2013-02-16 04:40:00,32.8,21.0,30.43,North,360,0.0,1.0,63,0.00,,,0.00,weatherlink.com 1.10,2013-02-16 10:40:00,
2013-02-16 04:55:00,29.9,20.0,30.43,North,360,0.0,2.0,68,0.00,,,0.00,weatherlink.com 1.10,2013-02-16 10:55:00,
2013-02-16 05:10:00,32.9,21.0,30.43,North,360,0.0,1.0,63,0.00,,,0.00,weatherlink.com 1.10,2013-02-16 11:10:00,
2013-02-16 05:25:00,33.0,21.0,30.44,North,360,0.0,4.0,62,0.00,,,0.00,weatherlink.com 1.10,2013-02-16 11:25:00,
2013-02-16 05:40:00,33.4,21.0,30.43,North,360,0.0,2.0,60,0.00,,,0.00,weatherlink.com 1.10,2013-02-16 11:40:00,
2013-02-16 05:55:00,33.0,20.0,30.44,North,360,0.0,1.0,60,0.00,,,0.00,weatherlink.com 1.10,2013-02-16 11:55:00,
2013-02-16 06:10:00,32.5,21.0,30.44,North,360,0.0,1.0,62,0.00,,,0.00,weatherlink.com 1.10,2013-02-16 12:10:00,
2013-02-16 06:25:00,31.9,20.0,30.44,North,360,0.0,1.0,63,0.00,,,0.00,weatherlink.com 1.10,2013-02-16 12:25:00,
2013-02-16 06:40:00,32.2,21.0,30.45,North,360,0.0,0.0,64,0.00,,,0.00,weatherlink.com 1.10,2013-02-16 12:40:00,
2013-02-16 06:55:00,32.1,21.0,30.45,North,360,0.0,0.0,64,0.00,,,0.00,weatherlink.com 1.10,2013-02-16 12:55:00,
2013-02-16 07:10:00,31.9,21.0,30.45,North,360,0.0,1.0,64,0.00,,,0.00,weatherlink.com 1.10,2013-02-16 13:10:00,
2013-02-16 07:25:00,32.4,21.0,30.45,North,360,0.0,2.0,63,0.00,,,0.00,weatherlink.com 1.10,2013-02-16 13:25:00,
2013-02-16 07:40:00,34.4,20.0,30.45,North,360,0.0,2.0,57,0.00,,,0.00,weatherlink.com 1.10,2013-02-16 13:40:00,
2013-02-16 07:55:00,35.6,20.0,30.47,North,360,0.0,3.0,54,0.00,,,0.00,weatherlink.com 1.10,2013-02-16 13:55:00,
2013-02-16 08:10:00,35.5,20.0,30.47,North,360,1.0,2.0,54,0.00,,,0.00,weatherlink.com 1.10,2013-02-16 14:10:00,
2013-02-16 08:25:00,35.9,20.0,30.48,North,360,0.0,3.0,52,0.00,,,0.00,weatherlink.com 1.10,2013-02-16 14:25:00,
2013-02-16 08:40:00,37.0,20.0,30.49,North,360,0.0,0.0,51,0.00,,,0.00,weatherlink.com 1.10,2013-02-16 14:40:00,
2013-02-16 08:55:00,38.6,22.0,30.49,North,360,0.0,1.0,51,0.00,,,0.00,weatherlink.com 1.10,2013-02-16 14:55:00,
2013-02-16 09:10:00,40.6,22.0,30.49,North,360,0.0,1.0,47,0.00,,,0.00,weatherlink.com 1.10,2013-02-16 15:10:00,
2013-02-16 09:25:00,42.1,23.0,30.48,North,360,0.0,1.0,47,0.00,,,0.00,weatherlink.com 1.10,2013-02-16 15:25:00,
2013-02-16 09:40:00,44.8,22.0,30.48,NW,325,5.0,10.0,40,0.00,,,0.00,weatherlink.com 1.10,2013-02-16 15:40:00,
2013-02-16 09:55:00,46.0,23.0,30.48,NW,324,6.0,8.0,41,0.00,,,0.00,weatherlink.com 1.10,2013-02-16 15:55:00,
2013-02-16 10:11:00,47.9,21.0,30.48,NW,312,7.0,9.0,35,0.00,,,0.00,weatherlink.com 1.10,2013-02-16 16:11:00,
2013-02-16 10:26:00,49.1,21.0,30.47,WNW,293,5.0,11.0,33,0.00,,,0.00,weatherlink.com 1.10,2013-02-16 16:26:00,
2013-02-16 10:41:00,49.8,20.0,30.47,West,281,3.0,11.0,31,0.00,,,0.00,weatherlink.com 1.10,2013-02-16 16:41:00,
2013-02-16 10:56:00,50.7,20.0,30.47,West,274,6.0,12.0,30,0.00,,,0.00,weatherlink.com 1.10,2013-02-16 16:56:00,
2013-02-16 11:11:00,51.8,19.0,30.46,West,266,3.0,13.0,28,0.00,,,0.00,weatherlink.com 1.10,2013-02-16 17:11:00,
2013-02-16 11:26:00,53.0,20.0,30.46,West,268,8.0,12.0,27,0.00,,,0.00,weatherlink.com 1.10,2013-02-16 17:26:00,
2013-02-16 11:41:00,53.8,19.0,30.45,West,273,4.0,11.0,25,0.00,,,0.00,weatherlink.com 1.10,2013-02-16 17:41:00,
2013-02-16 11:56:00,54.3,18.0,30.45,WNW,283,6.0,11.0,24,0.00,,,0.00,weatherlink.com 1.10,2013-02-16 17:56:00,
2013-02-16 12:11:00,55.4,18.0,30.44,West,265,13.0,13.0,23,0.00,,,0.00,weatherlink.com 1.10,2013-02-16 18:11:00,
2013-02-16 12:26:00,55.9,17.0,30.43,West,270,0.0,12.0,22,0.00,,,0.00,weatherlink.com 1.10,2013-02-16 18:26:00,
2013-02-16 12:41:00,56.6,17.0,30.42,West,265,1.0,13.0,21,0.00,,,0.00,weatherlink.com 1.10,2013-02-16 18:41:00,
2013-02-16 12:56:00,56.8,16.0,30.41,West,265,5.0,10.0,20,0.00,,,0.00,weatherlink.com 1.10,2013-02-16 18:56:00,
2013-02-16 13:12:00,57.6,15.0,30.39,West,273,3.0,10.0,19,0.00,,,0.00,weatherlink.com 1.10,2013-02-16 19:12:00,
2013-02-16 13:26:00,58.2,15.0,30.38,West,279,2.0,9.0,18,0.00,,,0.00,weatherlink.com 1.10,2013-02-16 19:26:00,
2013-02-16 13:41:00,58.5,12.0,30.36,West,260,2.0,8.0,16,0.00,,,0.00,weatherlink.com 1.10,2013-02-16 19:41:00,
2013-02-16 13:56:00,60.3,12.0,30.35,West,273,9.0,9.0,15,0.00,,,0.00,weatherlink.com 1.10,2013-02-16 19:56:00,
2013-02-16 14:12:00,59.4,12.0,30.34,West,260,1.0,13.0,15,0.00,,,0.00,weatherlink.com 1.10,2013-02-16 20:12:00,
2013-02-16 14:27:00,61.0,13.0,30.32,West,261,0.0,10.0,15,0.00,,,0.00,weatherlink.com 1.10,2013-02-16 20:27:00,
2013-02-16 14:42:00,61.7,10.0,30.32,West,261,3.0,10.0,13,0.00,,,0.00,weatherlink.com 1.10,2013-02-16 20:42:00,
2013-02-16 14:57:00,61.4,13.0,30.31,West,265,1.0,8.0,15,0.00,,,0.00,weatherlink.com 1.10,2013-02-16 20:57:00,
2013-02-16 15:12:00,60.2,14.0,30.30,West,273,1.0,14.0,16,0.00,,,0.00,weatherlink.com 1.10,2013-02-16 21:12:00,
2013-02-16 15:42:00,62.2,14.0,30.28,WSW,254,7.0,7.0,15,0.00,,,0.00,weatherlink.com 1.10,2013-02-16 21:42:00,
2013-02-16 15:57:00,61.0,14.0,30.27,West,261,1.0,14.0,16,0.00,,,0.00,weatherlink.com 1.10,2013-02-16 21:57:00,
2013-02-16 16:12:00,61.3,13.0,30.27,West,260,1.0,13.0,15,0.00,,,0.00,weatherlink.com 1.10,2013-02-16 22:12:00,
2013-02-16 16:27:00,61.7,13.0,30.26,West,261,3.0,12.0,15,0.00,,,0.00,weatherlink.com 1.10,2013-02-16 22:27:00,
2013-02-16 16:42:00,61.2,13.0,30.25,West,261,1.0,11.0,15,0.00,,,0.00,weatherlink.com 1.10,2013-02-16 22:42:00,
2013-02-16 16:57:00,61.4,13.0,30.24,WSW,242,2.0,7.0,15,0.00,,,0.00,weatherlink.com 1.10,2013-02-16 22:57:00,
2013-02-16 17:12:00,60.9,13.0,30.23,WSW,253,4.0,10.0,15,0.00,,,0.00,weatherlink.com 1.10,2013-02-16 23:12:00,
2013-02-16 17:27:00,60.3,12.0,30.23,West,259,6.0,10.0,15,0.00,,,0.00,weatherlink.com 1.10,2013-02-16 23:27:00,
2013-02-16 17:42:00,60.3,12.0,30.22,SSE,161,1.0,10.0,15,0.00,,,0.00,weatherlink.com 1.10,2013-02-16 23:42:00,
2013-02-16 17:57:00,59.4,13.0,30.21,SSE,163,1.0,7.0,16,0.00,,,0.00,weatherlink.com 1.10,2013-02-16 23:57:00,
2013-02-16 18:12:00,58.3,12.0,30.21,South,174,4.0,8.0,16,0.00,,,0.00,weatherlink.com 1.10,2013-02-17 00:12:00,
2013-02-16 18:27:00,56.8,12.0,30.21,SSE,168,0.0,7.0,17,0.00,,,0.00,weatherlink.com 1.10,2013-02-17 00:27:00,
2013-02-16 18:42:00,55.1,11.0,30.21,SSE,167,1.0,8.0,17,0.00,,,0.00,weatherlink.com 1.10,2013-02-17 00:42:00,
2013-02-16 18:57:00,53.2,12.0,30.21,SSE,161,2.0,8.0,19,0.00,,,0.00,weatherlink.com 1.10,2013-02-17 00:57:00,
2013-02-16 19:12:00,52.1,11.0,30.20,SSE,161,3.0,7.0,19,0.00,,,0.00,weatherlink.com 1.10,2013-02-17 01:12:00,
2013-02-16 19:27:00,51.5,9.0,30.21,SSE,160,3.0,7.0,18,0.00,,,0.00,weatherlink.com 1.10,2013-02-17 01:27:00,
2013-02-16 19:42:00,50.7,8.0,30.21,SSE,159,5.0,6.0,18,0.00,,,0.00,weatherlink.com 1.10,2013-02-17 01:42:00,
2013-02-16 19:57:00,50.3,9.0,30.21,SSE,157,4.0,8.0,19,0.00,,,0.00,weatherlink.com 1.10,2013-02-17 01:57:00,
2013-02-16 20:14:00,49.8,9.0,30.21,SSE,157,2.0,8.0,19,0.00,,,0.00,weatherlink.com 1.10,2013-02-17 02:14:00,
2013-02-16 20:27:00,49.1,9.0,30.21,SSE,157,0.0,4.0,20,0.00,,,0.00,weatherlink.com 1.10,2013-02-17 02:27:00,
2013-02-16 20:42:00,49.2,11.0,30.21,SSE,157,0.0,7.0,21,0.00,,,0.00,weatherlink.com 1.10,2013-02-17 02:42:00,
2013-02-16 20:57:00,49.2,12.0,30.20,SSE,155,3.0,7.0,22,0.00,,,0.00,weatherlink.com 1.10,2013-02-17 02:57:00,
2013-02-16 21:12:00,48.9,12.0,30.20,SSE,155,5.0,8.0,23,0.00,,,0.00,weatherlink.com 1.10,2013-02-17 03:12:00,
2013-02-16 21:27:00,48.6,12.0,30.20,SSE,153,7.0,7.0,23,0.00,,,0.00,weatherlink.com 1.10,2013-02-17 03:27:00,
2013-02-16 21:42:00,48.7,13.0,30.20,SSE,149,5.0,8.0,24,0.00,,,0.00,weatherlink.com 1.10,2013-02-17 03:42:00,
2013-02-16 21:58:00,48.6,13.0,30.20,SSE,147,5.0,8.0,24,0.00,,,0.00,weatherlink.com 1.10,2013-02-17 03:58:00,
2013-02-16 22:12:00,48.5,13.0,30.20,SE,146,5.0,8.0,24,0.00,,,0.00,weatherlink.com 1.10,2013-02-17 04:12:00,
2013-02-16 22:27:00,48.7,14.0,30.20,SE,145,4.0,9.0,25,0.00,,,0.00,weatherlink.com 1.10,2013-02-17 04:27:00,
2013-02-16 22:43:00,48.6,14.0,30.19,SE,144,0.0,8.0,25,0.00,,,0.00,weatherlink.com 1.10,2013-02-17 04:43:00,
2013-02-16 22:57:00,47.9,13.0,30.18,SE,144,4.0,7.0,25,0.00,,,0.00,weatherlink.com 1.10,2013-02-17 04:57:00,
2013-02-16 23:12:00,47.7,14.0,30.18,SE,144,2.0,7.0,26,0.00,,,0.00,weatherlink.com 1.10,2013-02-17 05:12:00,
2013-02-16 23:27:00,47.4,14.0,30.17,SE,144,3.0,7.0,26,0.00,,,0.00,weatherlink.com 1.10,2013-02-17 05:27:00,
2013-02-16 23:42:00,47.6,14.0,30.16,SE,142,6.0,7.0,26,0.00,,,0.00,weatherlink.com 1.10,2013-02-17 05:42:00,
2013-02-16 23:57:00,46.5,13.0,30.16,SE,142,1.0,5.0,26,0.00,,,0.00,weatherlink.com 1.10,2013-02-17 05:57:00,